Location: Ottawa
(45.4170°N, 75.7000°W)
Time: 14:56:54
(UTC-05:00)

Daily predictions for brighter satellites

Satellite Brightness Start Highest point End
(mag) Time Altitude Azimuth Time Altitude Azimuth Time Altitude Azimuth
Okean 3 3.4 18:05:34 10° N 18:09:46 72° E 18:13:56 10° SSE
CENTAUR R/B 2.6 18:05:39 10° SSW 18:11:37 70° ESE 18:18:30 10° NE
Cosmos 2297 Rocket 2.8 18:06:29 10° SW 18:12:05 61° WNW 18:17:43 10° NNE
CZ-4C R/B 3.6 18:06:01 10° NNW 18:12:09 33° NE 18:19:00 10° E
Aureole 3 3.7 18:07:22 10° S 18:12:42 72° E 18:16:54 10° NNE
FALCON 9 R/B 4.3 18:07:09 10° WSW 18:12:53 44° S 18:31:58 10° ESE
Envisat 4.3 18:09:29 10° ESE 18:13:09 20° ENE 18:16:47 10° NNE
Cosmos 468 4.5 18:12:27 10° SSW 18:17:41 72° ESE 18:22:55 10° NNE
COSMO-SKYMED 1 2.6 18:13:44 10° NNE 18:18:06 86° ESE 18:22:27 10° SSW
SL-8 R/B 3.8 18:13:49 10° WSW 18:18:37 83° NNW 18:23:25 10° ENE
H-2A R/B 3.0 18:17:41 10° SE 18:21:25 47° ENE 18:25:10 10° N
FREGAT/IRIS 3.5 18:19:49 10° SE 18:22:23 27° ENE 18:24:58 10° NNE
USA 267 4.3 18:17:28 10° ENE 18:23:09 33° N 18:28:49 10° NW
Cosmos 1603 3.9 18:18:46 10° NNW 18:24:15 48° ENE 18:29:40 10° SE
Tsikada Rocket 4.5 18:21:15 10° SSE 18:27:06 39° E 18:32:57 10° NNE
Sich 1 Rocket 3.7 18:24:26 10° S 18:28:47 54° E 18:33:08 10° NNE
Cosmos 921 Rocket 3.0 18:24:45 10° NNW 18:29:18 78° ENE 18:33:45 10° SSE
Cosmos 1464 Rocket 4.0 18:26:25 10° N 18:32:35 85° E 18:38:44 10° S
COSMOS 2455 3.7 18:27:54 10° SSE 18:32:49 27° ESE 18:37:46 10° NE
Cosmos 1269 Rocket 4.1 18:27:49 10° S 18:32:58 57° ESE 18:38:10 10° NNE
Cosmos 1812 4.0 18:29:32 10° NNW 18:33:16 47° W 18:37:00 10° SSW
Thor Agena Rocket 4.5 18:29:38 10° NE 18:33:44 24° E 18:37:47 10° SSE
NOAA 12 4.4 18:30:42 10° S 18:36:00 73° WSW 18:41:22 10° NNW
Cosmos 2263 Rocket 3.3 18:32:33 10° SE 18:36:30 20° E 18:40:29 10° NE
USA 32 4.1 18:32:42 10° S 18:37:50 59° E 18:42:59 10° NNE
Meteor 1-20 Rocket 4.3 18:32:26 10° S 18:38:11 87° E 18:44:03 10° NNE
Okean 2 Rocket 3.7 18:34:36 10° SSE 18:38:30 32° E 18:42:26 10° NNE
Iridium 4 Rocket 3.1 18:34:04 10° N 18:38:51 72° E 18:43:12 10° S
SJ-6B 3.4 18:36:10 10° SE 18:39:37 33° ENE 18:43:09 10° N
USA 186 3.6 18:39:20 15° ENE 18:39:41 15° ENE 18:41:41 10° NNE
Meteor 1-4 Rocket 3.4 18:38:37 10° SSE 18:41:39 27° E 18:44:43 10° NE
Cosmos 158 Rocket 4.4 18:37:43 10° SSW 18:42:33 62° WNW 18:47:25 10° NNE
Meteor 1-13 Rocket 4.4 18:38:12 10° N 18:43:31 46° ENE 18:48:47 10° SSE
ALOS 3.6 18:40:53 10° S 18:45:20 44° W 18:49:49 10° NNW
ATLAS 3B R/B 4.4 18:39:46 10° W 18:45:41 27° NNW 18:51:25 10° NNE
CZ-2D R/B 3.9 18:44:15 10° SE 18:47:49 35° ENE 18:51:23 10° N
Cosmos 1908 Rocket 3.9 18:44:19 10° SSW 18:48:46 71° W 18:53:14 10° N
Cosmos 1602 3.7 18:49:36 10° S 18:53:27 61° E 18:57:17 10° NNE
Okean 1 3.6 18:49:29 10° NNW 18:53:28 71° W 18:57:24 10° S
Cosmos 1331 Rocket 4.1 18:49:06 10° NNW 18:54:23 60° ENE 18:59:36 10° SE
ATLAS CENTAUR R/B 1.8 18:56:31 10° NNW 19:00:31 44° NE 19:02:49 23° ESE
Alouette 2 Rocket 3.8 18:57:35 10° SSE 19:00:49 34° E 19:04:25 10° NNE
Spot 2 Rocket 4.4 19:00:18 20° ESE 19:02:31 28° ENE 19:06:48 10° N
YAOGAN 6 4.0 19:03:07 21° NE 19:03:07 21° NE 19:05:24 10° NNE
EO 1 Del DPAF 4.0 19:03:07 10° N 19:06:53 55° WNW 19:10:36 10° SSW
Cosmos 2227 4.1 19:02:32 10° SSW 19:08:16 82° ESE 19:13:59 10° NNE
Meteor 2-4 Rocket 3.7 19:02:55 10° N 19:08:41 62° ENE 19:14:13 10° SSE
ARGOS Delta rocket 3.9 19:05:16 10° NNE 19:09:57 51° E 19:14:22 10° S
Cosmos 2034 Rocket 4.4 19:04:26 10° NNW 19:10:47 69° W 19:17:05 10° S
Cosmos 1975 Rocket 3.5 19:08:43 10° NNW 19:13:08 66° W 19:17:34 10° S
Resurs 1-3 3.9 19:16:55 30° ESE 19:18:30 42° ENE 19:22:38 10° N
Cosmos 1437 Rocket 3.8 19:16:09 10° SSW 19:20:07 50° WNW 19:24:09 10° N
Cosmos 1634 Rocket 3.9 19:14:13 10° N 19:20:20 61° ENE 19:26:25 10° SSE
Cosmos 2251 Rocket 3.7 19:15:59 10° S 19:20:55 44° ESE 19:25:54 10° NNE
Meteor 1-19 Rocket 4.4 19:15:49 10° NNW 19:21:21 75° W 19:26:54 10° S
SeaSat 1 2.4 19:21:53 25° SE 19:24:46 65° ENE 19:29:40 10° NNW
Cosmos 1302 Rocket 3.9 19:21:28 10° NNW 19:26:40 64° ENE 19:29:32 26° SE
Cosmos 1536 2.8 19:23:48 10° S 19:27:45 57° E 19:31:46 10° NNE
Cosmos 1943 3.1 19:22:04 10° NNW 19:27:46 83° ENE 19:32:10 17° SSE
Lacrosse 5 rocket 3.5 19:26:59 10° S 19:27:09 11° S 19:27:09 11° S
USA 215 3.6 19:27:29 28° ENE 19:30:31 44° SE 19:36:41 10° SSW
Cosmos 1184 Rocket 3.0 19:27:31 10° NNW 19:30:48 70° W 19:32:29 26° S
Cosmos 2142 Rocket 4.4 19:25:57 10° N 19:32:16 64° E 19:38:28 10° SSE
Meteor 1-11 Rocket 3.6 19:28:37 10° S 19:34:14 87° E 19:40:01 10° NNE
ERS-2 4.2 19:36:29 10° SSW 19:39:42 28° W 19:42:57 10° NW
Resurs 01 Rocket 1.5 19:38:44 44° SE 19:40:03 70° ENE 19:44:29 10° N
Gbstr 26 Del rocket 2.6 19:39:52 10° WSW 19:43:37 77° NNW 19:43:58 69° NNE
Cosmos 1536 Rocket 3.4 19:39:18 10° N 19:43:44 82° E 19:45:08 43° SSE
Envisat 3.5 19:46:43 10° S 19:51:43 59° W 19:56:45 10° NNW
Meteor 2-20 4.5 19:57:09 52° ESE 19:57:50 54° E 20:03:50 10° NNE
Cosmos 1939 Rocket 2.9 19:59:33 78° WSW 19:59:34 78° WSW 20:03:41 10° NNW
CZ-4C R/B 2.9 19:54:16 10° NW 20:01:27 81° SW 20:05:22 33° SSE
SL-8 R/B 3.9 19:56:43 10° WNW 20:01:27 59° N 20:01:40 59° NNE
CENTAUR R/B 4.1 19:57:10 10° W 20:02:54 34° NNW 20:09:24 10° NNE
USA 267 3.5 20:03:53 45° ENE 20:05:22 53° NNE 20:11:42 10° NW
Meteor 1-23 Rocket 4.4 19:59:43 10° NNW 20:05:33 73° W 20:09:44 20° S
SL-24 DEB 4.2 20:01:56 10° N 20:06:19 80° NNW 20:06:19 80° NNW
USA 186 3.8 20:10:53 30° WNW 20:10:53 30° WNW 20:13:13 10° NNW
SJ-11-01 4.3 20:12:40 76° WSW 20:12:47 77° WSW 20:17:33 10° NNW
Cosmos 2180 Rocket 4.3 20:08:12 10° N 20:14:27 77° E 20:15:17 66° SE
COSMOS 2455 3.4 20:12:26 10° SW 20:18:22 58° NW 20:23:20 15° NNE
Cosmos 2263 Rocket 2.5 20:14:21 10° SW 20:19:52 64° WNW 20:24:40 14° NNE
BREEZE-M DEB (TANK) 4.1 20:18:20 10° WSW 20:22:13 89° NNW 20:37:22 10° ENE
ARGOS 4.3 20:32:03 33° N 20:32:03 33° N 20:35:06 10° N
ATLAS CENTAUR R/B 3.5 20:35:53 10° WNW 20:39:07 24° WSW 20:39:07 24° WSW
H-2A R/B 3.8 20:47:16 26° N 20:47:16 26° N 20:49:37 10° N
USA 215 3.7 21:14:51 56° WNW 21:14:51 56° WNW 21:20:10 10° WSW
